Radiation Dose at Monitoring Post of Fukushima Daini Nuclear Power Station
Date,Time,MP-1(microSv/h),MP-2(microSv/h),MP-3(microSv/h),MP-4(microSv/h),MP-5(microSv/h),MP-6(microSv/h),MP-7(microSv/h),Wind Direction,Wind Velocity(m/s),Rain
2018/05/12,00:00,0.309,0.194,0.316,0.302,0.295,0.159,0.096,south-southwest,4.7,No
2018/05/12,00:10,0.310,0.195,0.315,0.301,0.300,0.159,0.096,south-southwest,5.0,No
2018/05/12,00:20,0.309,0.194,0.318,0.302,0.297,0.158,0.096,south,3.1,No
2018/05/12,00:30,0.309,0.195,0.313,0.301,0.298,0.158,0.096,south,3.3,No
2018/05/12,00:40,0.307,0.195,0.317,0.302,0.297,0.158,0.097,south-southwest,2.2,No
2018/05/12,00:50,0.309,0.194,0.315,0.302,0.298,0.157,0.096,west-southwest,1.3,No
2018/05/12,01:00,0.308,0.194,0.316,0.301,0.298,0.158,0.097,southwest,2.5,No
2018/05/12,01:10,0.311,0.195,0.316,0.303,0.300,0.158,0.096,south-southwest,1.8,No
2018/05/12,01:20,0.309,0.194,0.315,0.301,0.298,0.157,0.096,west,0.6,No
2018/05/12,01:30,0.309,0.194,0.315,0.304,0.301,0.157,0.096,-,CALM,No
2018/05/12,01:40,0.307,0.195,0.317,0.302,0.298,0.158,0.095,south,2.1,No
2018/05/12,01:50,0.310,0.194,0.316,0.304,0.299,0.159,0.096,south,0.7,No
2018/05/12,02:00,0.307,0.194,0.315,0.301,0.296,0.157,0.096,south-southeast,1.5,No
2018/05/12,02:10,0.310,0.195,0.317,0.304,0.301,0.157,0.096,south-southwest,3.0,No
2018/05/12,02:20,0.307,0.194,0.316,0.301,0.297,0.158,0.096,south-southwest,1.8,No
2018/05/12,02:30,0.309,0.195,0.317,0.304,0.298,0.158,0.096,-,CALM,No
2018/05/12,02:40,0.308,0.193,0.315,0.301,0.298,0.158,0.095,west-southwest,1.1,No
2018/05/12,02:50,0.309,0.195,0.316,0.303,0.300,0.157,0.095,southwest,2.3,No
2018/05/12,03:00,0.308,0.195,0.314,0.302,0.296,0.158,0.096,west-southwest,2.2,No
2018/05/12,03:10,0.310,0.194,0.317,0.302,0.300,0.157,0.095,west-northwest,0.7,No
2018/05/12,03:20,0.308,0.196,0.314,0.302,0.295,0.158,0.096,west,2.6,No
2018/05/12,03:30,0.309,0.194,0.317,0.303,0.298,0.157,0.096,west-northwest,2.3,No
2018/05/12,03:40,0.308,0.195,0.314,0.301,0.296,0.158,0.096,west,2.2,No
2018/05/12,03:50,0.310,0.194,0.317,0.302,0.299,0.158,0.095,west,2.7,No
2018/05/12,04:00,0.308,0.196,0.316,0.302,0.297,0.158,0.096,west,3.7,No
2018/05/12,04:10,0.309,0.194,0.318,0.301,0.300,0.158,0.096,west,4.4,No
2018/05/12,04:20,0.308,0.196,0.316,0.301,0.296,0.157,0.096,west,5.0,No
2018/05/12,04:30,0.310,0.194,0.316,0.301,0.298,0.158,0.096,west-northwest,4.3,No
2018/05/12,04:40,0.309,0.194,0.315,0.302,0.298,0.157,0.095,west-northwest,2.4,No
2018/05/12,04:50,0.310,0.195,0.318,0.302,0.297,0.158,0.096,northwest,2.4,No
2018/05/12,05:00,0.308,0.194,0.316,0.302,0.299,0.158,0.097,-,CALM,No
2018/05/12,05:10,0.310,0.195,0.316,0.302,0.296,0.158,0.096,-,CALM,No
2018/05/12,05:20,0.309,0.194,0.315,0.303,0.300,0.158,0.096,north-northeast,1.6,No
2018/05/12,05:30,0.310,0.196,0.318,0.302,0.296,0.158,0.097,north,2.1,No
2018/05/12,05:40,0.309,0.194,0.316,0.301,0.301,0.158,0.096,north,0.6,No
2018/05/12,05:50,0.309,0.194,0.317,0.302,0.296,0.158,0.096,east-northeast,2.1,No
2018/05/12,06:00,0.307,0.194,0.316,0.303,0.299,0.158,0.096,east,2.6,No
2018/05/12,06:10,0.309,0.195,0.317,0.301,0.299,0.158,0.096,east-southeast,2.8,No
2018/05/12,06:20,0.308,0.194,0.314,0.301,0.297,0.158,0.096,east,3.1,No
2018/05/12,06:30,0.310,0.193,0.317,0.303,0.300,0.158,0.095,east-southeast,3.6,No
2018/05/12,06:40,0.308,0.192,0.315,0.302,0.295,0.158,0.097,east-southeast,3.2,No
2018/05/12,06:50,0.311,0.195,0.316,0.303,0.299,0.157,0.095,east-southeast,3.1,No
2018/05/12,07:00,0.306,0.195,0.316,0.302,0.298,0.158,0.095,east-southeast,3.3,No
2018/05/12,07:10,0.308,0.193,0.314,0.301,0.295,0.158,0.096,east-southeast,2.6,No
2018/05/12,07:20,0.310,0.195,0.317,0.302,0.300,0.158,0.096,east-southeast,2.2,No
2018/05/12,07:30,0.307,0.194,0.313,0.300,0.298,0.157,0.095,east-southeast,2.0,No
2018/05/12,07:40,0.310,0.194,0.317,0.303,0.297,0.158,0.096,east-southeast,1.8,No
2018/05/12,07:50,0.308,0.195,0.317,0.303,0.300,0.157,0.095,east-southeast,1.9,No
2018/05/12,08:00,0.307,0.194,0.315,0.300,0.296,0.157,0.095,east-southeast,2.1,No
2018/05/12,08:10,0.310,0.194,0.317,0.301,0.297,0.159,0.096,southeast,2.3,No
2018/05/12,08:20,0.307,0.195,0.316,0.303,0.300,0.158,0.096,southeast,2.4,No
2018/05/12,08:30,0.309,0.193,0.315,0.301,0.298,0.158,0.096,southeast,1.8,No
2018/05/12,08:40,0.309,0.193,0.318,0.304,0.295,0.158,0.096,southeast,1.6,No
2018/05/12,08:50,0.307,0.195,0.315,0.304,0.300,0.157,0.096,southeast,1.4,No
2018/05/12,09:00,0.308,0.194,0.315,0.301,0.298,0.157,0.096,south-southeast,1.7,No
2018/05/12,09:10,0.308,0.194,0.317,0.302,0.296,0.159,0.097,southeast,1.4,No
2018/05/12,09:20,0.306,0.195,0.315,0.304,0.298,0.157,0.096,south-southeast,1.5,No
2018/05/12,09:30,0.310,0.195,0.316,0.302,0.299,0.158,0.097,south-southeast,1.9,No
2018/05/12,09:40,0.311,0.193,0.318,0.300,0.298,0.159,0.096,south-southeast,1.7,No
2018/05/12,09:50,0.309,0.193,0.315,0.299,0.296,0.158,0.097,south-southeast,2.1,No
2018/05/12,10:00,0.306,0.193,0.314,0.301,0.297,0.156,0.096,southeast,0.9,No
2018/05/12,10:10,0.305,0.191,0.319,0.299,0.295,0.157,0.096,south,1.5,No
2018/05/12,10:20,0.305,0.194,0.316,0.300,0.295,0.158,0.096,south-southeast,3.1,No
2018/05/12,10:30,0.309,0.197,0.315,0.305,0.299,0.158,0.097,south-southeast,3.5,No
2018/05/12,10:40,0.313,0.196,0.313,0.306,0.301,0.158,0.096,south-southeast,2.4,No
2018/05/12,10:50,0.310,0.195,0.313,0.304,0.300,0.157,0.096,south,2.9,No
2018/05/12,11:00,0.308,0.193,0.314,0.302,0.298,0.157,0.096,south,2.1,No
2018/05/12,11:10,0.307,0.193,0.317,0.301,0.296,0.158,0.095,south-southeast,4.6,No
2018/05/12,11:20,0.306,0.193,0.317,0.301,0.296,0.158,0.096,south-southeast,5.4,No
2018/05/12,11:30,0.309,0.195,0.314,0.302,0.298,0.158,0.096,south,4.7,No
2018/05/12,11:40,0.311,0.196,0.316,0.306,0.301,0.158,0.095,south,3.0,No
2018/05/12,11:50,0.309,0.194,0.319,0.305,0.299,0.158,0.095,south,3.2,No
2018/05/12,12:00,0.307,0.192,0.318,0.303,0.297,0.158,0.096,south-southeast,3.3,No
2018/05/12,12:10,0.309,0.195,0.315,0.300,0.296,0.158,0.096,south,3.8,No
2018/05/12,12:20,0.311,0.196,0.314,0.303,0.298,0.158,0.096,south-southeast,4.1,No
2018/05/12,12:30,0.311,0.194,0.319,0.307,0.302,0.159,0.097,south-southwest,5.9,No
2018/05/12,12:40,0.307,0.193,0.319,0.303,0.297,0.160,0.096,south,6.8,No
2018/05/12,12:50,0.309,0.196,0.316,0.302,0.296,0.157,0.096,south,7.1,No
2018/05/12,13:00,0.312,0.195,0.315,0.303,0.296,0.157,0.097,south,8.2,No
2018/05/12,13:10,0.309,0.195,0.317,0.306,0.298,0.159,0.096,south,8.5,No
2018/05/12,13:20,0.307,0.193,0.319,0.305,0.301,0.159,0.096,south,8.3,No
2018/05/12,13:30,0.309,0.196,0.319,0.303,0.299,0.158,0.095,south,8.8,No
2018/05/12,13:40,0.312,0.195,0.317,0.302,0.297,0.158,0.095,south,7.7,No
2018/05/12,13:50,0.311,0.195,0.317,0.301,0.297,0.158,0.095,south,6.1,No
2018/05/12,14:00,0.308,0.195,0.316,0.301,0.297,0.158,0.096,south,9.2,No
2018/05/12,14:10,0.309,0.195,0.315,0.301,0.296,0.158,0.096,south,8.1,No
2018/05/12,14:20,0.307,0.193,0.316,0.301,0.297,0.158,0.096,south,8.3,No
2018/05/12,14:30,0.307,0.193,0.316,0.302,0.297,0.159,0.095,south,8.4,No
2018/05/12,14:40,0.307,0.194,0.316,0.302,0.296,0.157,0.095,south,10.1,No
2018/05/12,14:50,0.306,0.193,0.315,0.302,0.297,0.158,0.097,south,9.5,No
2018/05/12,15:00,0.307,0.194,0.316,0.306,0.297,0.158,0.097,south,9.5,No
2018/05/12,15:10,0.306,0.194,0.317,0.307,0.296,0.160,0.095,south,9.6,No
2018/05/12,15:20,0.307,0.197,0.316,0.305,0.297,0.160,0.097,south,9.2,No
2018/05/12,15:30,0.312,0.195,0.315,0.306,0.296,0.158,0.096,south,8.3,No
2018/05/12,15:40,0.313,0.195,0.319,0.307,0.301,0.159,0.096,south-southwest,8.5,No
2018/05/12,15:50,0.308,0.197,0.320,0.305,0.300,0.159,0.096,south-southwest,9.0,No
2018/05/12,16:00,0.312,0.196,0.316,0.304,0.299,0.159,0.097,south-southwest,7.9,No
2018/05/12,16:10,0.312,0.196,0.320,0.306,0.302,0.159,0.096,south-southwest,7.4,No
2018/05/12,16:20,0.309,0.197,0.319,0.305,0.301,0.159,0.097,south-southwest,5.5,No
2018/05/12,16:30,0.313,0.195,0.317,0.303,0.298,0.160,0.096,south-southwest,5.6,No
2018/05/12,16:40,0.312,0.196,0.320,0.307,0.303,0.158,0.096,south-southwest,4.8,No
2018/05/12,16:50,0.309,0.195,0.320,0.305,0.301,0.160,0.097,southwest,3.0,No
2018/05/12,17:00,0.313,0.197,0.317,0.305,0.298,0.158,0.097,southwest,2.9,No
2018/05/12,17:10,0.309,0.196,0.320,0.308,0.302,0.160,0.097,southwest,2.6,No
2018/05/12,17:20,0.311,0.196,0.318,0.304,0.300,0.159,0.097,southwest,2.3,No
2018/05/12,17:30,0.312,0.196,0.318,0.306,0.299,0.158,0.097,southwest,2.0,No
2018/05/12,17:40,0.309,0.195,0.320,0.306,0.301,0.160,0.096,south-southwest,1.9,No
2018/05/12,17:50,0.312,0.197,0.317,0.304,0.300,0.159,0.097,south-southwest,3.8,No
2018/05/12,18:00,0.310,0.196,0.319,0.307,0.298,0.159,0.097,south-southwest,4.0,No
2018/05/12,18:10,0.311,0.196,0.319,0.303,0.302,0.158,0.096,southwest,1.7,No
2018/05/12,18:20,0.312,0.196,0.317,0.305,0.299,0.159,0.097,south-southwest,1.0,No
2018/05/12,18:30,0.311,0.197,0.320,0.307,0.299,0.159,0.097,southwest,1.9,No
2018/05/12,18:40,0.313,0.196,0.318,0.305,0.303,0.159,0.097,southwest,3.5,No
2018/05/12,18:50,0.310,0.196,0.320,0.308,0.298,0.160,0.098,southwest,1.3,No
2018/05/12,19:00,0.313,0.197,0.321,0.305,0.302,0.159,0.097,south-southwest,0.8,No
2018/05/12,19:10,0.310,0.196,0.318,0.308,0.299,0.160,0.097,south-southwest,1.7,No
2018/05/12,19:20,0.312,0.198,0.321,0.307,0.301,0.159,0.097,south-southwest,1.9,No
2018/05/12,19:30,0.311,0.196,0.319,0.305,0.301,0.160,0.097,south,5.2,No
2018/05/12,19:40,0.311,0.196,0.322,0.307,0.300,0.159,0.097,south-southwest,8.4,No
2018/05/12,19:50,0.311,0.196,0.319,0.306,0.302,0.159,0.097,southwest,7.1,No
2018/05/12,20:00,0.310,0.197,0.319,0.307,0.298,0.158,0.098,southwest,4.6,No
2018/05/12,20:10,0.314,0.197,0.320,0.305,0.303,0.159,0.097,west-southwest,1.2,No
2018/05/12,20:20,0.309,0.196,0.319,0.307,0.299,0.160,0.097,-,CALM,No
2018/05/12,20:30,0.313,0.197,0.322,0.306,0.301,0.159,0.097,west,0.8,No
2018/05/12,20:40,0.310,0.197,0.319,0.308,0.301,0.161,0.098,west-southwest,2.1,No
2018/05/12,20:50,0.313,0.197,0.321,0.307,0.300,0.160,0.097,west,1.8,No
2018/05/12,21:00,0.310,0.196,0.318,0.306,0.301,0.160,0.098,west-northwest,1.1,No
2018/05/12,21:10,0.311,0.197,0.320,0.307,0.300,0.159,0.096,-,CALM,No
2018/05/12,21:20,0.311,0.196,0.321,0.306,0.302,0.160,0.098,-,CALM,No
2018/05/12,21:30,0.312,0.197,0.321,0.308,0.299,0.160,0.097,west,2.5,No
2018/05/12,21:40,0.309,0.197,0.319,0.305,0.302,0.159,0.098,west,3.3,No
2018/05/12,21:50,0.311,0.196,0.321,0.309,0.298,0.160,0.097,west-southwest,2.9,No
2018/05/12,22:00,0.310,0.197,0.319,0.306,0.302,0.160,0.098,west,1.6,No
2018/05/12,22:10,0.312,0.196,0.320,0.307,0.300,0.161,0.098,west-northwest,2.1,No
2018/05/12,22:20,0.311,0.197,0.319,0.305,0.303,0.159,0.098,northwest,1.4,No
2018/05/12,22:30,0.313,0.198,0.322,0.307,0.299,0.160,0.097,west-northwest,1.5,No
2018/05/12,22:40,0.310,0.197,0.319,0.307,0.302,0.159,0.097,northwest,0.8,No
2018/05/12,22:50,0.312,0.197,0.321,0.306,0.299,0.160,0.097,west-southwest,1.7,No
2018/05/12,23:00,0.310,0.198,0.320,0.307,0.301,0.160,0.098,southwest,2.2,No
2018/05/12,23:10,0.313,0.196,0.320,0.306,0.299,0.159,0.097,southwest,1.9,No
2018/05/12,23:20,0.311,0.197,0.322,0.308,0.302,0.160,0.098,west-southwest,1.8,No
2018/05/12,23:30,0.312,0.197,0.320,0.307,0.299,0.160,0.097,northwest,0.6,No
2018/05/12,23:40,0.312,0.197,0.321,0.307,0.303,0.160,0.097,northwest,0.7,No
2018/05/12,23:50,0.312,0.197,0.320,0.307,0.299,0.160,0.098,north-northwest,0.9,No
